Theta_e
314 314 314 313 312 312 313 314 314 313 313 311 314 317 315 311 315 317 317 316 315 314 313 316 320 325 327 328 328 327 326 319 316 313 313 313 311 311 310 310 309 309 308 306
314 315 315 316 315 315 314 314 316 316 313 312 315 315 316 316 317 317 316 315 314 313 313 315 316 321 322 323 325 326 322 316 314 313 313 313 311 310 309 308 307 306 306 305
315 315 315 317 317 318 319 317 318 317 314 311 314 314 317 316 317 316 315 314 313 313 314 314 316 315 316 315 314 314 313 313 313 314 313 312 311 308 307 306 306 306 306 304
316 317 316 316 317 317 320 318 317 316 313 316 312 316 318 316 317 317 316 314 313 313 314 315 314 312 312 312 313 313 313 313 313 313 313 313 311 310 307 306 305 305 303 301
319 318 318 317 318 317 319 317 317 316 316 316 319 317 316 318 320 318 316 315 313 313 314 312 312 312 313 313 313 314 314 313 313 313 312 312 311 309 306 306 306 304 301 300
317 316 316 317 317 316 316 319 317 317 316 319 322 315 316 317 318 318 316 315 314 314 313 312 312 313 313 313 314 314 313 313 313 312 311 311 310 308 306 305 304 302 301 300
318 318 316 317 319 317 316 318 319 322 319 322 318 318 316 314 315 317 316 315 314 312 311 311 312 312 312 311 312 312 312 312 311 310 309 308 307 305 304 303 302 301 300 299
319 320 318 316 318 319 317 317 319 326 322 320 317 322 319 316 314 315 315 314 312 311 311 312 313 312 312 311 311 311 311 310 309 308 307 305 304 303 303 302 301 300 300 299
319 319 317 316 316 317 318 316 314 317 314 316 318 319 317 315 315 315 315 313 312 310 310 309 310 310 310 309 308 309 309 308 307 306 304 303 303 302 302 301 300 300 299 299
318 321 316 316 317 315 315 315 317 312 317 320 316 318 319 318 317 315 314 313 310 309 307 306 307 308 308 307 306 306 307 306 305 304 303 302 301 300 299 298 298 298 298 298
316 315 315 317 316 317 317 316 312 313 311 314 313 317 311 317 316 316 313 311 309 308 306 305 305 306 305 304 303 304 304 303 302 302 302 301 300 298 296 296 295 293 294 295
314 312 315 318 315 315 315 316 311 308 312 310 310 311 311 312 314 313 311 310 308 306 304 304 305 304 303 302 303 303 302 301 299 300 300 296 296 295 294 294 294 295 294 294
313 314 316 315 312 313 316 315 311 308 308 313 308 309 312 311 311 311 309 308 306 304 303 303 303 303 302 301 302 301 299 298 297 296 295 295 295 294 294 293 292 292 292 293
312 313 313 315 313 313 314 315 313 311 309 310 310 310 313 314 312 310 308 306 305 304 303 302 302 302 301 300 299 298 297 296 295 295 295 295 294 293 292 292 291 291 291 293
311 314 314 313 312 312 311 311 313 313 311 312 310 310 309 311 311 309 307 305 305 304 304 303 302 302 301 301 298 296 296 295 295 294 294 295 293 293 292 291 291 291 292 292
311 312 310 315 312 311 312 310 309 309 309 310 310 310 307 310 308 308 307 306 306 305 304 302 302 302 301 297 296 295 295 294 294 293 294 294 292 292 291 290 291 291 290 290
310 308 307 309 307 305 306 308 309 309 309 308 311 309 310 310 309 308 306 306 305 304 303 302 302 299 297 296 295 294 294 294 293 293 294 292 292 291 290 290 291 289 290 290
307 305 299 302 301 303 307 308 309 309 310 308 311 310 310 309 307 307 305 305 304 303 302 301 297 296 296 295 294 294 293 293 293 293 292 292 291 290 290 290 290 291 289 289
306 303 303 302 304 304 307 309 311 311 310 310 310 310 307 306 306 307 304 303 302 302 301 299 296 296 295 294 293 293 293 292 293 292 292 291 290 289 289 288 289 290 291 290
305 301 303 300 301 300 304 307 309 310 311 309 309 308 307 306 307 308 303 301 301 302 298 294 294 294 293 293 293 293 293 293 292 292 291 291 290 289 288 288 288 289 290 288
307 301 302 296 298 303 303 309 309 311 309 309 308 307 305 307 306 304 301 301 301 295 293 293 293 293 293 293 293 293 292 292 292 291 291 290 289 288 287 287 288 288 288 286
310 311 311 303 299 309 305 311 311 309 307 309 307 305 306 305 302 303 302 294 293 292 293 293 293 292 292 292 292 292 291 292 291 291 290 289 289 288 287 286 286 286 286 284
310 307 306 307 308 306 304 308 307 306 307 308 307 306 306 304 304 299 294 293 292 292 292 292 292 292 292 292 292 291 291 291 290 289 289 288 288 287 285 285 285 284 284 284
308 305 305 308 308 306 305 305 308 307 308 308 307 305 305 306 301 295 294 293 291 291 292 292 291 291 291 291 291 291 290 288 289 289 289 288 288 287 284 285 284 284 283 283
307 307 308 306 307 307 308 308 307 308 306 306 305 305 305 298 296 296 293 291 291 291 291 291 291 290 290 290 290 289 288 288 289 288 288 288 288 286 284 285 284 284 283 283
307 309 307 307 306 308 307 309 307 307 306 306 304 301 297 298 296 292 291 291 291 291 290 290 289 289 289 289 288 288 288 288 288 288 287 287 287 286 284 284 284 284 283 282
Wind_Speed
5 7 3 5 5 4 4 3 3 2 2 7 6 5 8 4 7 6 6 7 7 7 6 11 14 19 23 22 25 20 16 16 20 22 20 18 17 14 11 8 6 5 5 8
6 4 3 4 4 6 6 5 2 2 6 6 6 8 8 8 3 4 7 7 7 7 6 14 22 24 26 25 24 21 21 21 19 17 14 10 12 9 6 5 3 4 8 12
6 1 3 4 5 8 4 4 1 2 3 7 4 4 5 5 6 8 7 5 5 8 8 6 16 23 23 25 27 27 25 22 16 10 9 9 9 8 6 4 2 6 11 13
5 3 5 6 5 3 3 0 2 4 3 3 3 3 2 3 4 4 5 5 6 6 4 5 8 14 20 18 17 16 14 12 11 9 7 7 5 7 4 3 2 6 10 13
1 2 5 7 1 2 1 5 4 3 5 4 4 4 3 6 3 5 5 5 5 7 6 7 5 12 13 12 10 11 8 8 6 5 3 2 2 3 5 1 4 7 9 13
3 2 3 2 2 3 4 5 8 5 3 2 1 4 3 5 6 6 4 5 7 5 2 7 10 10 9 11 11 10 9 7 5 4 2 2 2 3 1 4 7 10 11 14
6 4 5 2 3 3 6 5 3 3 3 4 3 3 6 5 5 9 9 8 7 6 7 7 13 17 15 9 11 12 10 6 4 3 3 3 1 2 6 9 13 14 15 18
4 4 3 5 2 4 3 5 5 5 3 3 3 3 4 4 7 9 9 8 6 6 4 5 9 10 14 13 10 8 6 5 5 3 3 1 5 8 10 14 14 16 19 21
4 0 2 2 2 3 2 3 3 6 2 3 2 3 4 5 4 7 9 7 7 6 6 6 10 12 14 12 8 7 4 6 5 3 3 6 9 13 15 16 18 20 22 25
5 4 2 2 3 5 2 5 3 3 2 3 4 4 5 5 7 8 8 8 7 5 6 6 12 12 10 9 5 2 5 6 4 4 7 9 11 14 15 16 18 20 24 25
3 4 4 1 3 3 2 2 6 4 3 4 1 5 5 12 12 12 8 7 8 8 7 6 9 8 7 6 3 5 6 3 3 7 9 10 12 11 14 15 15 16 17 19
1 5 2 2 2 2 2 3 5 4 3 1 3 5 2 6 9 7 7 7 5 6 6 6 7 7 5 3 5 7 1 3 5 6 6 6 9 10 10 12 13 16 20 22
5 1 3 6 5 4 2 3 4 5 3 5 5 5 1 3 6 4 8 8 7 7 6 4 5 4 3 6 6 2 2 1 4 5 7 8 7 8 10 14 18 23 24 24
6 3 5 7 4 2 4 4 4 5 3 4 6 4 4 4 6 6 8 7 8 7 6 4 3 3 4 2 1 3 3 2 3 5 5 5 6 9 14 19 23 24 23 19
3 4 2 1 3 1 2 5 6 7 5 6 5 7 7 9 10 7 7 8 7 7 5 4 2 3 2 2 3 4 2 3 5 8 7 5 8 13 19 23 22 22 18 12
3 2 1 2 4 5 3 5 6 5 3 7 3 9 7 2 7 7 8 8 7 6 6 6 5 2 4 4 5 2 4 7 9 10 6 6 11 17 20 20 20 18 13 11
3 5 3 4 4 5 6 9 11 6 5 7 7 9 6 4 7 8 8 8 8 7 6 6 5 4 6 6 1 3 8 11 11 7 5 10 15 18 17 17 16 11 7 6
5 4 3 2 3 2 6 2 4 9 5 8 2 4 7 4 3 5 5 8 7 7 6 5 5 6 7 4 3 7 10 11 8 4 9 13 15 16 16 16 13 12 8 8
3 5 3 4 3 6 5 5 7 8 7 8 7 4 5 4 4 3 6 6 7 6 8 6 7 8 5 4 7 9 9 7 5 10 12 14 13 16 18 20 17 14 12 10
5 6 4 3 3 6 6 3 3 3 5 7 8 8 8 6 3 6 9 6 8 9 9 11 9 6 3 6 6 5 5 7 9 11 14 13 13 16 19 19 17 13 9 8
3 3 5 2 3 8 7 3 1 5 7 5 8 7 8 6 6 3 7 6 10 13 13 10 8 3 3 3 4 5 7 8 12 16 17 15 13 15 13 15 12 11 8 6
7 6 4 3 2 7 6 4 7 6 1 6 7 8 13 5 7 6 7 8 13 14 13 7 4 1 1 6 7 6 8 11 15 18 19 15 12 14 13 13 8 3 4 4
2 6 5 9 6 4 6 4 3 2 3 5 6 6 8 8 6 7 7 7 10 12 9 5 2 1 4 6 5 8 11 15 17 16 15 11 12 14 14 14 11 7 4 5
4 4 3 2 4 7 9 6 6 5 6 4 4 5 8 8 9 8 7 7 10 8 6 2 1 3 6 7 7 9 14 17 14 12 10 12 15 12 12 10 7 6 6 7
4 4 4 5 9 5 9 8 6 5 4 4 4 5 6 11 9 9 6 8 9 6 2 1 2 5 8 7 11 13 15 15 11 11 11 16 19 13 10 9 9 9 8 10
5 7 4 6 8 4 6 4 4 7 7 7 7 6 6 9 10 12 8 10 8 4 1 1 4 7 9 12 15 15 13 13 12 13 14 17 17 12 11 9 10 11 10 11
Wind_Direction
357 73 122 203 196 167 134 139 171 261 262 78 86 54 355 348 92 105 96 98 87 66 54 78 94 117 119 133 145 151 155 132 144 132 124 117 109 107 105 102 91 51 25 13
35 95 220 113 92 97 78 95 88 352 17 92 77 43 17 16 44 116 121 106 104 97 74 88 106 111 110 113 125 141 149 154 154 133 119 117 126 125 131 124 101 47 19 10
115 87 106 101 58 86 43 111 36 143 51 52 101 39 29 9 51 78 73 104 104 123 123 115 112 117 116 124 127 137 141 141 137 126 129 137 144 151 161 151 78 24 6 353
80 337 99 67 75 105 116 131 97 72 87 156 25 241 49 74 56 83 119 124 134 136 94 83 107 120 119 116 121 127 133 137 143 150 166 181 214 203 189 152 44 0 349 345
268 67 69 65 106 76 133 65 66 81 81 85 5 85 274 128 159 185 179 173 174 179 150 128 112 124 124 129 137 139 150 159 163 179 213 228 197 164 152 142 335 320 331 329
52 32 65 112 67 70 127 57 36 42 63 48 312 132 247 195 187 181 187 193 191 176 170 119 131 137 131 156 172 173 183 188 185 210 222 180 161 154 176 276 289 302 309 309
14 348 326 54 91 55 70 65 6 1 3 219 310 124 247 216 183 176 178 187 194 156 159 162 153 154 148 171 157 167 182 159 170 176 154 160 180 285 307 314 315 307 311 313
131 336 9 342 82 157 79 141 154 214 195 245 341 247 250 276 215 160 173 187 158 168 170 137 141 162 157 171 167 176 166 170 194 181 154 299 295 293 295 300 288 296 312 310
138 283 321 66 67 109 180 54 158 106 0 55 259 292 322 40 107 150 175 173 184 182 166 152 161 171 158 152 150 165 181 205 187 177 272 284 272 269 283 299 301 299 313 309
194 105 33 347 80 42 116 145 66 9 129 264 295 274 231 194 197 180 185 186 168 166 155 151 166 160 146 137 116 136 164 159 169 241 268 291 314 317 318 323 322 319 313 309
120 97 284 23 37 163 37 57 52 104 114 157 275 261 223 195 196 192 191 185 175 166 155 150 138 126 110 88 92 103 116 118 300 296 303 319 336 355 348 338 345 341 331 323
41 123 123 205 276 242 175 144 136 113 206 85 147 275 322 245 203 171 185 172 134 136 141 128 110 105 109 130 91 116 134 264 296 320 351 18 357 351 343 340 340 335 328 319
178 24 65 354 353 346 191 127 102 106 89 195 133 263 18 73 121 141 149 135 135 135 126 124 127 125 117 111 137 177 206 129 56 29 360 344 334 336 346 345 339 331 320 315
91 103 154 187 206 176 177 162 161 129 122 179 224 258 238 202 181 162 145 145 147 155 158 163 165 134 86 113 160 187 147 72 7 332 307 304 333 342 341 337 333 327 325 326
92 134 126 86 0 326 231 189 184 189 187 172 239 214 236 219 204 186 157 150 158 168 171 172 170 158 158 239 200 144 94 326 306 300 280 310 335 338 335 334 329 327 328 329
20 169 127 185 354 12 293 262 222 227 207 262 249 274 208 189 129 162 172 164 172 182 186 188 167 188 205 183 147 156 320 310 294 294 282 320 334 332 331 329 326 325 339 324
82 126 101 258 3 346 328 222 203 200 194 166 196 229 157 173 190 182 176 181 185 186 194 191 196 191 167 157 176 312 308 299 298 286 300 329 329 326 325 327 323 329 323 321
121 99 74 184 22 351 239 221 210 217 220 199 199 199 191 189 128 167 185 179 193 195 201 186 176 155 159 187 264 299 303 302 299 294 320 323 321 317 321 323 320 308 304 303
65 115 90 140 201 300 291 195 182 178 264 194 200 159 140 95 75 276 198 184 188 193 184 184 166 171 188 247 299 305 310 311 301 309 315 316 313 322 324 318 312 302 290 285
56 66 110 101 149 225 240 265 172 117 296 198 160 168 153 130 150 241 181 178 184 171 168 153 154 169 235 296 303 319 313 289 298 308 313 307 315 321 321 320 309 293 280 273
39 17 158 126 233 288 245 240 180 101 245 158 171 162 149 189 200 193 151 150 164 152 143 146 155 194 295 278 279 287 290 294 319 319 309 298 306 321 318 323 313 287 269 215
170 156 194 118 75 278 168 71 166 218 247 186 181 182 192 184 146 140 122 125 129 128 139 148 140 97 268 307 270 273 294 319 323 319 308 289 307 319 310 313 303 279 219 237
230 189 181 187 216 236 228 229 267 180 204 213 195 191 182 149 152 128 121 115 122 142 143 134 124 300 320 321 282 291 312 318 319 324 313 285 301 310 307 297 285 262 263 291
247 163 207 91 257 233 239 260 227 208 219 202 205 160 164 146 132 122 113 125 153 149 136 134 291 308 318 323 300 303 311 317 304 309 308 291 294 298 302 296 262 255 280 286
205 147 186 261 279 275 264 236 234 203 197 192 164 154 136 125 130 137 137 149 148 155 150 308 306 315 313 311 314 317 319 320 290 291 303 312 299 279 285 288 262 261 277 284
190 194 168 232 237 199 249 297 182 190 203 175 140 108 97 129 139 125 128 146 155 168 207 293 319 320 315 314 316 319 321 322 289 284 302 318 305 275 268 279 276 266 274 290